site,interval,poc,DATE,RECORD,batt_volt_Min,PTemp,AethDate,AethTime,AethChan1,AethChan2,AethChan3,AethChan4,AethChan5,AethChan6,AethChan7,AethFlow,AethDelta,Aeth_count,Aeth_perc,Aeth_data_flag
BV,001m,1,2024-05-28 13:01:35,0,12.14,27.53,28-May-24,13:02,146.0,156.0,152.0,207.0,170.0,139.0,151.0,5.0,7.0,0.0,1.0,,
BV,001m,1,2024-05-28 13:02:35,1,12.14,27.25,28-May-24,13:03,915.0,918.0,900.0,834.0,800.0,851.0,853.0,5.0,64.0,0.0,1.0,,
BV,001m,1,2024-05-28 13:03:35,2,12.14,26.84,28-May-24,13:04,491.0,497.0,446.0,447.0,447.0,458.0,483.0,5.0,33.0,0.0,1.0,,
BV,001m,1,2024-05-28 13:04:35,3,12.14,26.44,28-May-24,13:05,573.0,563.0,527.0,486.0,485.0,479.0,513.0,5.0,94.0,0.0,1.0,,
BV,001m,1,2024-05-28 13:05:35,4,12.14,26.04,28-May-24,13:06,472.0,478.0,440.0,450.0,425.0,438.0,433.0,5.0,34.0,0.0,1.0,,
BV,001m,1,2024-05-28 13:06:35,5,12.14,25.64,28-May-24,13:07,139.0,173.0,179.0,172.0,168.0,156.0,164.0,5.0,-17.0,0.0,1.0,,
BV,001m,1,2024-05-28 13:07:35,6,12.14,25.28,28-May-24,13:08,178.0,211.0,205.0,212.0,210.0,197.0,197.0,5.0,-19.0,0.0,1.0,,
BV,001m,1,2024-05-28 13:08:35,7,12.13,24.89,28-May-24,13:09,253.0,275.0,231.0,269.0,224.0,209.0,226.0,5.0,44.0,0.0,1.0,,
BV,001m,1,2024-05-28 13:09:35,8,12.14,24.57,28-May-24,13:10,62.0,139.0,143.0,133.0,133.0,82.0,80.0,5.0,-20.0,0.0,1.0,,
BV,001m,1,2024-05-28 13:10:35,9,12.13,24.28,28-May-24,13:11,220.0,236.0,233.0,206.0,202.0,181.0,204.0,5.0,39.0,0.0,1.0,,
BV,001m,1,2024-05-28 13:11:35,10,12.13,23.99,28-May-24,13:12,439.0,456.0,405.0,396.0,404.0,405.0,392.0,5.0,34.0,0.0,1.0,,
BV,001m,1,2024-05-28 13:12:35,11,12.13,23.84,28-May-24,13:13,129.0,130.0,135.0,161.0,104.0,102.0,117.0,5.0,27.0,0.0,1.0,,
BV,001m,1,2024-05-28 13:13:35,12,12.13,23.72,28-May-24,13:14,176.0,209.0,184.0,211.0,193.0,173.0,144.0,5.0,3.0,0.0,1.0,,
BV,001m,1,2024-05-28 13:14:35,13,12.13,23.64,28-May-24,13:15,289.0,281.0,269.0,236.0,225.0,206.0,243.0,5.0,83.0,0.0,1.0,,
BV,001m,1,2024-05-28 13:15:35,14,12.13,23.55,28-May-24,13:16,281.0,256.0,225.0,234.0,237.0,226.0,219.0,5.0,55.0,0.0,1.0,,
BV,001m,1,2024-05-28 13:16:35,15,12.14,23.5,28-May-24,13:17,205.0,199.0,212.0,218.0,196.0,181.0,190.0,5.0,24.0,0.0,1.0,,
BV,001m,1,2024-05-28 13:17:35,16,12.14,23.47,28-May-24,13:18,186.0,202.0,194.0,184.0,171.0,119.0,132.0,5.0,67.0,0.0,1.0,,
BV,001m,1,2024-05-28 13:18:35,17,12.13,23.44,28-May-24,13:19,224.0,260.0,211.0,210.0,196.0,182.0,148.0,5.0,42.0,0.0,1.0,,
BV,001m,1,2024-05-28 13:19:35,18,12.14,23.41,28-May-24,13:20,636.0,568.0,536.0,539.0,503.0,569.0,594.0,5.0,67.0,0.0,1.0,,
BV,001m,1,2024-05-28 13:20:35,19,12.14,23.41,28-May-24,13:21,221.0,224.0,205.0,199.0,180.0,124.0,154.0,5.0,97.0,0.0,1.0,,
BV,001m,1,2024-05-28 13:21:35,20,12.14,23.41,28-May-24,13:22,292.0,268.0,260.0,281.0,251.0,265.0,227.0,5.0,27.0,0.0,1.0,,
BV,001m,1,2024-05-28 13:22:35,21,12.14,23.41,28-May-24,13:23,428.0,414.0,385.0,345.0,366.0,333.0,359.0,5.0,95.0,0.0,1.0,,
BV,001m,1,2024-05-28 13:23:35,22,12.14,23.44,28-May-24,13:24,297.0,287.0,258.0,282.0,255.0,260.0,244.0,5.0,37.0,0.0,1.0,,
BV,001m,1,2024-05-28 13:24:35,23,12.14,23.47,28-May-24,13:25,538.0,539.0,526.0,480.0,480.0,450.0,491.0,5.0,88.0,0.0,1.0,,
BV,001m,1,2024-05-28 13:25:35,24,12.14,23.47,28-May-24,13:26,118.0,111.0,101.0,126.0,85.0,80.0,88.0,5.0,38.0,0.0,1.0,,
BV,001m,1,2024-05-28 13:26:35,25,12.14,23.5,28-May-24,13:27,459.0,406.0,401.0,406.0,377.0,389.0,362.0,5.0,70.0,0.0,1.0,,
BV,001m,1,2024-05-28 13:27:35,26,12.15,23.5,28-May-24,13:28,302.0,358.0,299.0,279.0,299.0,247.0,281.0,5.0,55.0,0.0,1.0,,
BV,001m,1,2024-05-28 13:28:35,27,12.14,23.44,28-May-24,13:29,-56.0,-5.0,18.0,34.0,22.0,-51.0,-29.0,5.0,-5.0,0.0,1.0,,
BV,001m,1,2024-05-28 13:29:35,28,12.15,23.35,28-May-24,13:30,164.0,208.0,173.0,155.0,146.0,151.0,116.0,5.0,13.0,0.0,1.0,,
BV,001m,1,2024-05-28 13:30:35,29,12.14,23.24,28-May-24,13:31,267.0,272.0,277.0,287.0,265.0,264.0,269.0,5.0,3.0,0.0,1.0,,
BV,001m,1,2024-05-28 13:31:35,30,12.14,23.12,28-May-24,13:32,313.0,353.0,317.0,294.0,270.0,253.0,282.0,5.0,60.0,0.0,1.0,,
BV,001m,1,2024-05-28 13:32:35,31,12.14,22.98,28-May-24,13:33,-22.0,64.0,73.0,56.0,82.0,51.0,51.0,5.0,-73.0,0.0,1.0,,
BV,001m,1,2024-05-28 13:33:35,32,12.14,22.81,28-May-24,13:34,335.0,343.0,306.0,332.0,286.0,304.0,280.0,5.0,31.0,0.0,1.0,,
BV,001m,1,2024-05-28 13:34:35,33,12.14,22.67,28-May-24,13:35,4.0,48.0,68.0,79.0,58.0,10.0,26.0,5.0,-6.0,0.0,1.0,,
BV,001m,1,2024-05-28 13:35:35,34,12.14,22.53,28-May-24,13:36,1167.0,1010.0,911.0,885.0,872.0,965.0,972.0,5.0,202.0,0.0,1.0,,
BV,001m,1,2024-05-28 13:36:35,35,12.14,22.36,28-May-24,13:37,-312.0,-176.0,-135.0,-123.0,-134.0,-220.0,-194.0,5.0,-92.0,0.0,1.0,,
BV,001m,1,2024-05-28 13:37:35,36,12.14,22.22,28-May-24,13:38,350.0,370.0,296.0,317.0,314.0,314.0,327.0,5.0,36.0,0.0,1.0,,
BV,001m,1,2024-05-28 13:38:35,37,12.13,22.06,28-May-24,13:39,365.0,351.0,366.0,360.0,331.0,333.0,345.0,5.0,32.0,0.0,1.0,,
BV,001m,1,2024-05-28 13:39:35,38,12.14,21.92,28-May-24,13:40,209.0,254.0,241.0,228.0,221.0,188.0,199.0,5.0,21.0,0.0,1.0,,
BV,001m,1,2024-05-28 13:40:35,39,12.13,21.81,28-May-24,13:41,120.0,186.0,151.0,138.0,146.0,133.0,120.0,5.0,-13.0,0.0,1.0,,
BV,001m,1,2024-05-28 13:41:35,40,12.13,21.64,28-May-24,13:42,309.0,296.0,297.0,319.0,271.0,296.0,294.0,5.0,13.0,0.0,1.0,,
BV,001m,1,2024-05-28 13:42:35,41,12.13,21.51,28-May-24,13:43,458.0,434.0,401.0,394.0,413.0,386.0,424.0,5.0,72.0,0.0,1.0,,
BV,001m,1,2024-05-28 13:43:35,42,12.13,21.4,28-May-24,13:44,241.0,249.0,204.0,228.0,180.0,179.0,160.0,5.0,62.0,0.0,1.0,,
BV,001m,1,2024-05-28 13:44:35,43,12.13,21.4,28-May-24,13:45,311.0,325.0,333.0,299.0,303.0,308.0,339.0,5.0,3.0,0.0,1.0,,
BV,001m,1,2024-05-28 13:45:35,44,12.13,21.4,28-May-24,13:46,369.0,372.0,339.0,358.0,321.0,329.0,311.0,5.0,40.0,0.0,1.0,,
BV,001m,1,2024-05-28 13:46:35,45,12.13,21.4,28-May-24,13:47,357.0,392.0,350.0,330.0,341.0,319.0,330.0,5.0,38.0,0.0,1.0,,
BV,001m,1,2024-05-28 13:51:35,46,12.13,21.64,28-May-24,13:52,394.0,323.0,287.0,312.0,312.0,248.0,315.0,5.0,146.0,0.0,1.0,,
BV,001m,1,2024-05-28 13:52:35,47,12.13,21.7,28-May-24,13:53,474.0,349.0,352.0,344.0,353.0,371.0,400.0,5.0,103.0,0.0,1.0,,
BV,001m,1,2024-05-28 13:53:35,48,12.13,21.78,28-May-24,13:54,354.0,309.0,279.0,280.0,288.0,258.0,282.0,5.0,96.0,0.0,1.0,,
BV,001m,1,2024-05-28 13:54:35,49,12.13,21.84,28-May-24,13:55,404.0,294.0,283.0,302.0,287.0,279.0,328.0,5.0,125.0,0.0,1.0,,
BV,001m,1,2024-05-28 13:55:35,50,12.14,21.92,28-May-24,13:56,348.0,279.0,254.0,236.0,232.0,209.0,172.0,5.0,139.0,0.0,1.0,,
BV,001m,1,2024-05-28 13:56:35,51,12.14,22.0,28-May-24,13:57,444.0,332.0,305.0,299.0,290.0,273.0,305.0,5.0,171.0,0.0,1.0,,
BV,001m,1,2024-05-28 13:57:35,52,12.14,22.08,28-May-24,13:58,400.0,285.0,283.0,281.0,266.0,230.0,248.0,5.0,170.0,0.0,1.0,,
BV,001m,1,2024-05-28 13:58:35,53,12.13,22.17,28-May-24,13:59,485.0,341.0,309.0,317.0,309.0,327.0,335.0,5.0,158.0,0.0,1.0,,
BV,001m,1,2024-05-28 13:59:35,54,12.14,22.25,28-May-24,14:00,412.0,288.0,278.0,263.0,255.0,221.0,243.0,5.0,191.0,0.0,1.0,,
BV,001m,1,2024-05-28 14:00:35,55,12.14,22.31,28-May-24,14:01,438.0,345.0,312.0,304.0,287.0,272.0,255.0,5.0,166.0,0.0,1.0,,
BV,001m,1,2024-05-28 14:01:35,56,12.14,22.31,28-May-24,14:02,481.0,350.0,342.0,353.0,346.0,317.0,359.0,5.0,164.0,0.0,1.0,,
BV,001m,1,2024-05-28 14:02:35,57,12.14,22.28,28-May-24,14:03,371.0,308.0,276.0,257.0,235.0,209.0,203.0,5.0,162.0,0.0,1.0,,
BV,001m,1,2024-05-28 14:03:35,58,12.14,22.22,28-May-24,14:04,304.0,250.0,225.0,217.0,218.0,143.0,142.0,5.0,161.0,0.0,1.0,,
BV,001m,1,2024-05-28 14:04:35,59,12.14,22.17,28-May-24,14:05,437.0,351.0,327.0,326.0,317.0,334.0,330.0,5.0,103.0,0.0,1.0,,
BV,001m,1,2024-05-28 14:05:35,60,12.14,22.08,28-May-24,14:06,440.0,318.0,320.0,302.0,316.0,302.0,327.0,5.0,138.0,0.0,1.0,,
BV,001m,1,2024-05-28 14:06:35,61,12.14,21.97,28-May-24,14:07,475.0,379.0,349.0,355.0,356.0,363.0,377.0,5.0,112.0,0.0,1.0,,
BV,001m,1,2024-05-28 14:07:35,62,12.14,21.89,28-May-24,14:08,437.0,379.0,343.0,326.0,327.0,291.0,316.0,5.0,146.0,0.0,1.0,,
BV,001m,1,2024-05-28 14:08:35,63,12.13,21.75,28-May-24,14:09,422.0,351.0,331.0,309.0,312.0,289.0,284.0,5.0,133.0,0.0,1.0,,
BV,001m,1,2024-05-28 14:09:35,64,12.13,21.64,28-May-24,14:10,474.0,391.0,379.0,361.0,344.0,377.0,385.0,5.0,97.0,0.0,1.0,,
BV,001m,1,2024-05-28 14:10:35,65,12.13,21.56,28-May-24,14:11,426.0,355.0,332.0,335.0,312.0,277.0,288.0,5.0,149.0,0.0,1.0,,
BV,001m,1,2024-05-28 14:11:35,66,12.13,21.42,28-May-24,14:12,422.0,334.0,321.0,336.0,322.0,268.0,302.0,5.0,154.0,0.0,1.0,,
BV,001m,1,2024-05-28 14:12:35,67,12.13,21.31,28-May-24,14:13,448.0,398.0,362.0,355.0,340.0,343.0,350.0,5.0,105.0,0.0,1.0,,
BV,001m,1,2024-05-28 14:13:36,68,12.13,21.21,28-May-24,14:14,476.0,379.0,367.0,352.0,371.0,365.0,382.0,5.0,111.0,0.0,1.0,,
BV,001m,1,2024-05-28 14:14:35,69,12.13,21.1,28-May-24,14:15,397.0,337.0,329.0,301.0,293.0,279.0,269.0,5.0,118.0,0.0,1.0,,
BV,001m,1,2024-05-28 14:15:35,70,12.13,20.96,28-May-24,14:16,382.0,323.0,294.0,301.0,279.0,294.0,268.0,5.0,88.0,0.0,1.0,,
BV,001m,1,2024-05-28 14:16:35,71,12.13,20.91,28-May-24,14:17,498.0,427.0,379.0,389.0,373.0,377.0,419.0,5.0,121.0,0.0,1.0,,
BV,001m,1,2024-05-28 14:17:35,72,12.13,20.91,28-May-24,14:18,373.0,311.0,316.0,299.0,300.0,273.0,319.0,5.0,100.0,0.0,1.0,,
BV,001m,1,2024-05-28 14:18:35,73,12.12,20.91,28-May-24,14:19,422.0,340.0,312.0,320.0,287.0,272.0,246.0,5.0,150.0,0.0,1.0,,
BV,001m,1,2024-05-28 14:19:35,74,12.13,20.96,28-May-24,14:20,395.0,320.0,286.0,283.0,275.0,257.0,269.0,5.0,138.0,0.0,1.0,,
BV,001m,1,2024-05-28 14:20:35,75,12.13,20.99,28-May-24,14:21,426.0,352.0,329.0,320.0,302.0,302.0,300.0,5.0,124.0,0.0,1.0,,
BV,001m,1,2024-05-28 14:21:35,76,12.13,21.07,28-May-24,14:22,498.0,376.0,354.0,358.0,338.0,318.0,361.0,5.0,180.0,0.0,1.0,,
BV,001m,1,2024-05-28 14:22:35,77,12.13,21.12,28-May-24,14:23,467.0,394.0,369.0,340.0,345.0,309.0,312.0,5.0,158.0,0.0,1.0,,
BV,001m,1,2024-05-28 14:23:35,78,12.12,21.21,28-May-24,14:24,474.0,386.0,383.0,376.0,344.0,323.0,312.0,5.0,151.0,0.0,1.0,,
BV,001m,1,2024-05-28 14:24:35,79,12.13,21.26,28-May-24,14:25,431.0,383.0,331.0,333.0,309.0,281.0,291.0,5.0,150.0,0.0,1.0,,
BV,001m,1,2024-05-28 14:25:35,80,12.13,21.34,28-May-24,14:26,488.0,389.0,373.0,373.0,358.0,369.0,386.0,5.0,119.0,0.0,1.0,,
BV,001m,1,2024-05-28 14:26:35,81,12.13,21.42,28-May-24,14:27,420.0,335.0,313.0,330.0,314.0,294.0,285.0,5.0,126.0,0.0,1.0,,
BV,001m,1,2024-05-28 14:27:35,82,12.13,21.51,28-May-24,14:28,268.0,233.0,195.0,187.0,179.0,125.0,112.0,5.0,143.0,0.0,1.0,,
BV,001m,1,2024-05-28 14:29:35,84,12.13,21.7,28-May-24,14:30,381.0,290.0,268.0,256.0,262.0,275.0,282.0,5.0,106.0,0.0,1.0,,
BV,001m,1,2024-05-28 14:30:35,85,12.14,21.78,28-May-24,14:31,353.0,277.0,238.0,258.0,234.0,208.0,221.0,5.0,145.0,0.0,1.0,,
BV,001m,1,2024-05-28 14:31:35,86,12.13,21.86,28-May-24,14:32,397.0,297.0,273.0,241.0,258.0,211.0,219.0,5.0,186.0,0.0,1.0,,
BV,001m,1,2024-05-28 14:32:35,87,12.14,21.97,28-May-24,14:33,426.0,340.0,314.0,331.0,300.0,330.0,313.0,5.0,96.0,0.0,1.0,,
BV,001m,1,2024-05-28 14:33:35,88,12.14,22.03,28-May-24,14:34,429.0,370.0,358.0,336.0,328.0,312.0,349.0,5.0,117.0,0.0,1.0,,
BV,001m,1,2024-05-28 14:34:35,89,12.14,22.06,28-May-24,14:35,388.0,373.0,344.0,343.0,340.0,285.0,276.0,5.0,103.0,0.0,1.0,,
BV,001m,1,2024-05-28 14:35:35,90,12.14,22.03,28-May-24,14:36,340.0,308.0,306.0,283.0,273.0,285.0,293.0,5.0,55.0,0.0,1.0,,
BV,001m,1,2024-05-28 14:36:35,91,12.14,21.97,28-May-24,14:37,306.0,271.0,241.0,266.0,239.0,215.0,219.0,5.0,91.0,0.0,1.0,,
BV,001m,1,2024-05-28 14:37:35,92,12.13,21.92,28-May-24,14:38,276.0,258.0,244.0,236.0,236.0,233.0,225.0,5.0,43.0,0.0,1.0,,
BV,001m,1,2024-05-28 14:38:35,93,12.13,21.81,28-May-24,14:39,327.0,291.0,290.0,260.0,275.0,253.0,264.0,5.0,74.0,0.0,1.0,,
BV,001m,1,2024-05-28 14:39:35,94,12.13,21.72,28-May-24,14:40,305.0,280.0,242.0,289.0,240.0,266.0,285.0,5.0,39.0,0.0,1.0,,
BV,001m,1,2024-05-28 14:40:35,95,12.14,21.62,28-May-24,14:41,320.0,287.0,291.0,273.0,292.0,298.0,316.0,5.0,22.0,0.0,1.0,,
BV,001m,1,2024-05-28 14:41:35,96,12.14,21.53,28-May-24,14:42,301.0,287.0,270.0,257.0,248.0,231.0,250.0,5.0,70.0,0.0,1.0,,
BV,001m,1,2024-05-28 14:42:35,97,12.13,21.4,28-May-24,14:43,309.0,283.0,269.0,260.0,256.0,246.0,264.0,5.0,63.0,0.0,1.0,,
BV,001m,1,2024-05-28 14:43:35,98,12.13,21.29,28-May-24,14:44,229.0,246.0,215.0,236.0,204.0,182.0,152.0,5.0,47.0,0.0,1.0,,
BV,001m,1,2024-05-28 14:44:35,99,12.13,21.18,28-May-24,14:45,258.0,255.0,253.0,238.0,242.0,227.0,245.0,5.0,31.0,0.0,1.0,,
BV,001m,1,2024-05-28 14:45:35,100,12.13,21.07,28-May-24,14:46,301.0,288.0,259.0,266.0,257.0,255.0,279.0,5.0,46.0,0.0,1.0,,
BV,001m,1,2024-05-28 14:46:35,101,12.13,20.93,28-May-24,14:47,281.0,293.0,243.0,254.0,240.0,234.0,227.0,5.0,47.0,0.0,1.0,,
BV,001m,1,2024-05-28 14:47:35,102,12.13,20.85,28-May-24,14:48,347.0,306.0,320.0,319.0,290.0,290.0,320.0,5.0,57.0,0.0,1.0,,
BV,001m,1,2024-05-28 14:48:35,103,12.12,20.85,28-May-24,14:49,328.0,311.0,290.0,245.0,270.0,260.0,254.0,5.0,68.0,0.0,1.0,,
BV,001m,1,2024-05-28 14:49:35,104,12.13,20.85,28-May-24,14:50,406.0,357.0,343.0,332.0,322.0,327.0,334.0,5.0,79.0,0.0,1.0,,
BV,001m,1,2024-05-28 14:50:35,105,12.13,20.91,28-May-24,14:51,329.0,283.0,259.0,275.0,261.0,232.0,228.0,5.0,97.0,0.0,1.0,,
BV,001m,1,2024-05-28 14:52:35,107,12.13,20.99,28-May-24,14:53,339.0,290.0,275.0,265.0,265.0,259.0,236.0,5.0,80.0,0.0,1.0,,
BV,001m,1,2024-05-28 14:53:35,108,12.12,21.1,28-May-24,14:54,339.0,287.0,277.0,264.0,256.0,253.0,256.0,5.0,86.0,0.0,1.0,,
BV,001m,1,2024-05-28 14:54:35,109,12.13,21.15,28-May-24,14:55,361.0,324.0,292.0,318.0,291.0,304.0,321.0,5.0,57.0,0.0,1.0,,
BV,001m,1,2024-05-28 14:55:35,110,12.13,21.23,28-May-24,14:56,325.0,279.0,251.0,248.0,244.0,213.0,219.0,5.0,112.0,0.0,1.0,,
BV,001m,1,2024-05-28 14:56:35,111,12.13,21.31,28-May-24,14:57,372.0,342.0,308.0,324.0,292.0,316.0,325.0,5.0,56.0,0.0,1.0,,
BV,001m,1,2024-05-28 14:57:35,112,12.13,21.37,28-May-24,14:58,279.0,259.0,245.0,235.0,236.0,162.0,183.0,5.0,117.0,0.0,1.0,,
BV,001m,1,2024-05-28 14:58:35,113,12.13,21.48,28-May-24,14:59,384.0,334.0,307.0,290.0,293.0,344.0,349.0,5.0,40.0,0.0,1.0,,
BV,001m,1,2024-05-28 14:59:35,114,12.13,21.56,28-May-24,15:00,241.0,217.0,231.0,221.0,199.0,124.0,113.0,5.0,117.0,0.0,1.0,,
BV,001m,1,2024-05-28 15:00:35,115,12.13,21.64,28-May-24,15:01,359.0,329.0,293.0,299.0,274.0,274.0,268.0,5.0,85.0,0.0,1.0,,
BV,001m,1,2024-05-28 15:01:35,116,12.14,21.75,28-May-24,15:02,338.0,284.0,278.0,266.0,268.0,269.0,275.0,5.0,69.0,0.0,1.0,,
BV,001m,1,2024-05-28 15:02:35,117,12.13,21.86,28-May-24,15:03,331.0,297.0,259.0,276.0,260.0,216.0,231.0,5.0,115.0,0.0,1.0,,
BV,001m,1,2024-05-28 15:03:35,118,12.13,21.95,28-May-24,15:04,323.0,296.0,287.0,254.0,265.0,263.0,273.0,5.0,60.0,0.0,1.0,,
BV,001m,1,2024-05-28 15:04:35,119,12.14,22.06,28-May-24,15:05,289.0,227.0,217.0,232.0,224.0,201.0,207.0,5.0,88.0,0.0,1.0,,
BV,001m,1,2024-05-28 15:05:35,120,12.14,22.14,28-May-24,15:06,266.0,234.0,227.0,236.0,206.0,213.0,222.0,5.0,53.0,0.0,1.0,,
BV,001m,1,2024-05-28 15:07:35,122,12.14,22.11,28-May-24,15:08,237.0,240.0,231.0,223.0,201.0,158.0,185.0,5.0,79.0,0.0,1.0,,
BV,001m,1,2024-05-28 15:08:35,123,12.13,22.03,28-May-24,15:09,208.0,232.0,212.0,207.0,206.0,232.0,217.0,5.0,-24.0,0.0,1.0,,
BV,001m,1,2024-05-28 15:09:35,124,12.14,21.97,28-May-24,15:10,232.0,225.0,221.0,218.0,234.0,194.0,218.0,5.0,38.0,0.0,1.0,,
BV,001m,1,2024-05-28 15:10:35,125,12.14,21.89,28-May-24,15:11,233.0,252.0,231.0,238.0,223.0,214.0,208.0,5.0,19.0,0.0,1.0,,
BV,001m,1,2024-05-28 15:11:35,126,12.14,21.78,28-May-24,15:12,225.0,260.0,229.0,221.0,215.0,218.0,230.0,5.0,7.0,0.0,1.0,,
BV,001m,1,2024-05-28 15:12:35,127,12.13,21.67,28-May-24,15:13,273.0,274.0,271.0,258.0,277.0,235.0,274.0,5.0,38.0,0.0,1.0,,
BV,001m,1,2024-05-28 15:13:35,128,12.13,21.56,28-May-24,15:14,184.0,193.0,197.0,199.0,169.0,181.0,125.0,5.0,3.0,0.0,1.0,,
BV,001m,1,2024-05-28 15:14:35,129,12.13,21.45,28-May-24,15:15,172.0,226.0,189.0,170.0,181.0,142.0,168.0,5.0,30.0,0.0,1.0,,
BV,001m,1,2024-05-28 15:15:35,130,12.13,21.31,28-May-24,15:16,192.0,199.0,217.0,211.0,184.0,166.0,207.0,5.0,26.0,0.0,1.0,,
BV,001m,1,2024-05-28 15:16:35,131,12.13,21.21,28-May-24,15:17,241.0,260.0,235.0,228.0,223.0,246.0,228.0,5.0,-5.0,0.0,1.0,,
BV,001m,1,2024-05-28 15:17:35,132,12.13,21.1,28-May-24,15:18,265.0,226.0,229.0,262.0,249.0,259.0,292.0,5.0,6.0,0.0,1.0,,
BV,001m,1,2024-05-28 15:18:35,133,12.12,20.99,28-May-24,15:19,272.0,284.0,254.0,237.0,244.0,259.0,237.0,5.0,13.0,0.0,1.0,,
BV,001m,1,2024-05-28 15:19:35,134,12.13,20.96,28-May-24,15:20,192.0,181.0,169.0,181.0,164.0,131.0,134.0,5.0,61.0,0.0,1.0,,
BV,001m,1,2024-05-28 15:20:35,135,12.13,20.99,28-May-24,15:21,126.0,147.0,120.0,117.0,109.0,56.0,93.0,5.0,70.0,0.0,1.0,,
BV,001m,1,2024-05-28 15:21:35,136,12.13,21.02,28-May-24,15:22,198.0,186.0,177.0,193.0,165.0,198.0,167.0,5.0,0.0,0.0,1.0,,
BV,001m,1,2024-05-28 15:22:35,137,12.13,21.07,28-May-24,15:23,191.0,156.0,160.0,148.0,152.0,139.0,147.0,5.0,52.0,0.0,1.0,,
BV,001m,1,2024-05-28 15:23:35,138,12.13,21.12,28-May-24,15:24,232.0,221.0,217.0,204.0,206.0,208.0,201.0,5.0,24.0,0.0,1.0,,
BV,001m,1,2024-05-28 15:24:35,139,12.13,21.18,28-May-24,15:25,256.0,207.0,200.0,189.0,189.0,201.0,208.0,5.0,55.0,0.0,1.0,,
BV,001m,1,2024-05-28 15:25:35,140,12.13,21.26,28-May-24,15:26,159.0,159.0,146.0,157.0,117.0,105.0,92.0,5.0,54.0,0.0,1.0,,
BV,001m,1,2024-05-28 15:26:35,141,12.13,21.31,28-May-24,15:27,238.0,204.0,189.0,195.0,216.0,177.0,196.0,5.0,61.0,0.0,1.0,,
BV,001m,1,2024-05-28 15:27:35,142,12.13,21.4,28-May-24,15:28,345.0,273.0,257.0,241.0,258.0,327.0,362.0,5.0,18.0,0.0,1.0,,
BV,001m,1,2024-05-28 15:28:35,143,12.13,21.48,28-May-24,15:29,216.0,199.0,197.0,203.0,176.0,156.0,156.0,5.0,60.0,0.0,1.0,,
BV,001m,1,2024-05-28 15:29:35,144,12.13,21.56,28-May-24,15:30,348.0,276.0,253.0,274.0,275.0,334.0,339.0,5.0,14.0,0.0,1.0,,
BV,001m,1,2024-05-28 15:30:35,145,12.13,21.64,28-May-24,15:31,263.0,229.0,208.0,186.0,204.0,195.0,181.0,5.0,68.0,0.0,1.0,,
BV,001m,1,2024-05-28 15:31:35,146,12.13,21.72,28-May-24,15:32,79.0,102.0,102.0,103.0,67.0,-4.0,15.0,5.0,83.0,0.0,1.0,,
BV,001m,1,2024-05-28 15:32:35,147,12.14,21.81,28-May-24,15:33,134.0,134.0,124.0,108.0,115.0,50.0,68.0,5.0,84.0,0.0,1.0,,
BV,001m,1,2024-05-28 15:33:35,148,12.13,21.92,28-May-24,15:34,111.0,123.0,105.0,88.0,69.0,53.0,31.0,5.0,58.0,0.0,1.0,,
BV,001m,1,2024-05-28 15:34:35,149,12.13,22.03,28-May-24,15:35,252.0,193.0,170.0,214.0,183.0,231.0,243.0,5.0,21.0,0.0,1.0,,
BV,001m,1,2024-05-28 15:35:35,150,12.14,22.11,28-May-24,15:36,143.0,148.0,142.0,119.0,131.0,97.0,77.0,5.0,46.0,0.0,1.0,,
BV,001m,1,2024-05-28 15:36:35,151,12.14,22.22,28-May-24,15:37,141.0,108.0,116.0,106.0,98.0,42.0,91.0,5.0,99.0,0.0,1.0,,
BV,001m,1,2024-05-28 15:37:35,152,12.14,22.28,28-May-24,15:38,181.0,173.0,158.0,173.0,162.0,194.0,175.0,5.0,-13.0,0.0,1.0,,
BV,001m,1,2024-05-28 15:38:35,153,12.13,22.28,28-May-24,15:39,39.0,64.0,65.0,46.0,62.0,-27.0,-18.0,5.0,66.0,0.0,1.0,,
BV,001m,1,2024-05-28 15:39:35,154,12.14,22.25,28-May-24,15:40,195.0,181.0,156.0,168.0,154.0,187.0,196.0,5.0,8.0,0.0,1.0,,
BV,001m,1,2024-05-28 15:40:35,155,12.14,22.19,28-May-24,15:41,102.0,123.0,132.0,123.0,103.0,94.0,51.0,5.0,8.0,0.0,1.0,,
BV,001m,1,2024-05-28 15:41:35,156,12.14,22.11,28-May-24,15:42,125.0,112.0,116.0,150.0,122.0,126.0,170.0,5.0,-1.0,0.0,1.0,,
BV,001m,1,2024-05-28 15:42:35,157,12.14,22.03,28-May-24,15:43,188.0,192.0,192.0,171.0,184.0,209.0,206.0,5.0,-21.0,0.0,1.0,,
BV,001m,1,2024-05-28 15:43:35,158,12.13,21.92,28-May-24,15:44,87.0,123.0,87.0,100.0,101.0,55.0,53.0,5.0,32.0,0.0,1.0,,
BV,001m,1,2024-05-28 15:44:35,159,12.13,21.81,28-May-24,15:45,85.0,114.0,114.0,112.0,107.0,82.0,96.0,5.0,3.0,0.0,1.0,,
BV,001m,1,2024-05-28 15:45:35,160,12.13,21.7,28-May-24,15:46,125.0,131.0,152.0,128.0,136.0,103.0,132.0,5.0,22.0,0.0,1.0,,
BV,001m,1,2024-05-28 15:46:35,161,12.13,21.59,28-May-24,15:47,54.0,118.0,96.0,92.0,84.0,89.0,38.0,5.0,-35.0,0.0,1.0,,
BV,001m,1,2024-05-28 15:47:35,162,12.13,21.48,28-May-24,15:48,182.0,174.0,171.0,157.0,170.0,179.0,196.0,5.0,3.0,0.0,1.0,,
BV,001m,1,2024-05-28 15:48:35,163,12.13,21.34,28-May-24,15:49,100.0,127.0,130.0,120.0,115.0,108.0,131.0,5.0,-8.0,0.0,1.0,,
BV,001m,1,2024-05-28 15:49:35,164,12.13,21.23,28-May-24,15:50,136.0,152.0,141.0,153.0,158.0,160.0,139.0,5.0,-24.0,0.0,1.0,,
BV,001m,1,2024-05-28 15:50:35,165,12.13,21.12,28-May-24,15:51,161.0,167.0,170.0,158.0,141.0,145.0,171.0,5.0,16.0,0.0,1.0,,
BV,001m,1,2024-05-28 15:51:35,166,12.13,21.02,28-May-24,15:52,127.0,137.0,126.0,112.0,114.0,94.0,95.0,5.0,33.0,0.0,1.0,,
BV,001m,1,2024-05-28 15:52:35,167,12.13,21.02,28-May-24,15:53,36.0,81.0,61.0,75.0,63.0,25.0,15.0,5.0,11.0,0.0,1.0,,
BV,001m,1,2024-05-28 15:53:35,168,12.12,21.02,28-May-24,15:54,150.0,148.0,129.0,140.0,124.0,112.0,124.0,5.0,38.0,0.0,1.0,,
BV,001m,1,2024-05-28 15:54:35,169,12.13,21.1,28-May-24,15:55,162.0,114.0,133.0,132.0,117.0,110.0,133.0,5.0,52.0,0.0,1.0,,
BV,001m,1,2024-05-28 15:55:35,170,12.13,21.12,28-May-24,15:56,247.0,197.0,177.0,185.0,202.0,235.0,233.0,5.0,12.0,0.0,1.0,,
BV,001m,1,2024-05-28 15:56:35,171,12.13,21.18,28-May-24,15:57,-45.0,20.0,26.0,-2.0,-35.0,-88.0,-75.0,5.0,43.0,0.0,1.0,,
BV,001m,1,2024-05-28 15:57:35,172,12.13,21.23,28-May-24,15:58,242.0,200.0,172.0,189.0,206.0,236.0,246.0,5.0,6.0,0.0,1.0,,
BV,001m,1,2024-05-28 15:58:35,173,12.13,21.29,28-May-24,15:59,120.0,91.0,96.0,85.0,70.0,73.0,21.0,5.0,47.0,0.0,1.0,,
BV,001m,1,2024-05-28 15:59:35,174,12.13,21.37,28-May-24,16:00,156.0,133.0,143.0,132.0,137.0,140.0,131.0,5.0,16.0,0.0,1.0,,
BV,001m,1,2024-05-28 16:00:35,175,12.13,21.45,28-May-24,16:01,207.0,179.0,146.0,166.0,154.0,149.0,186.0,5.0,58.0,0.0,1.0,,
BV,001m,1,2024-05-28 16:01:35,176,12.13,21.53,28-May-24,16:02,128.0,107.0,103.0,124.0,107.0,78.0,102.0,5.0,50.0,0.0,1.0,,
BV,001m,1,2024-05-28 16:02:35,177,12.13,21.59,28-May-24,16:03,109.0,102.0,92.0,67.0,80.0,73.0,51.0,5.0,36.0,0.0,1.0,,
BV,001m,1,2024-05-28 16:03:35,178,12.13,21.67,28-May-24,16:04,78.0,88.0,97.0,100.0,63.0,38.0,16.0,5.0,40.0,0.0,1.0,,
BV,001m,1,2024-05-28 16:04:35,179,12.13,21.75,28-May-24,16:05,134.0,98.0,93.0,86.0,92.0,48.0,70.0,5.0,86.0,0.0,1.0,,
BV,001m,1,2024-05-28 16:05:35,180,12.13,21.86,28-May-24,16:06,70.0,84.0,74.0,64.0,56.0,31.0,38.0,5.0,39.0,0.0,1.0,,
BV,001m,1,2024-05-28 16:06:35,181,12.13,21.95,28-May-24,16:07,91.0,123.0,93.0,92.0,89.0,45.0,23.0,5.0,46.0,0.0,1.0,,
BV,001m,1,2024-05-28 16:07:35,182,12.13,22.03,28-May-24,16:08,253.0,169.0,187.0,185.0,179.0,231.0,248.0,5.0,22.0,0.0,1.0,,
BV,001m,1,2024-05-28 16:08:35,183,12.13,22.14,28-May-24,16:09,47.0,73.0,47.0,36.0,21.0,-52.0,-56.0,5.0,99.0,0.0,1.0,,
BV,001m,1,2024-05-28 16:09:35,184,12.14,22.25,28-May-24,16:10,148.0,100.0,116.0,119.0,118.0,140.0,124.0,5.0,8.0,0.0,1.0,,
BV,001m,1,2024-05-28 16:10:35,185,12.14,22.31,28-May-24,16:11,147.0,123.0,128.0,125.0,126.0,108.0,155.0,5.0,39.0,0.0,1.0,,
BV,001m,1,2024-05-28 16:11:35,186,12.13,22.28,28-May-24,16:12,45.0,107.0,67.0,63.0,63.0,13.0,-4.0,5.0,32.0,0.0,1.0,,
BV,001m,1,2024-05-28 16:12:35,187,12.13,22.25,28-May-24,16:13,79.0,77.0,97.0,93.0,74.0,71.0,54.0,5.0,8.0,0.0,1.0,,
BV,001m,1,2024-05-28 16:13:35,188,12.13,22.19,28-May-24,16:14,191.0,180.0,171.0,160.0,198.0,217.0,238.0,5.0,-26.0,0.0,1.0,,
BV,001m,1,2024-05-28 16:14:35,189,12.14,22.11,28-May-24,16:15,65.0,109.0,90.0,95.0,88.0,39.0,52.0,5.0,26.0,0.0,1.0,,
BV,001m,1,2024-05-28 16:15:35,190,12.13,22.0,28-May-24,16:16,127.0,135.0,136.0,152.0,124.0,142.0,152.0,5.0,-15.0,0.0,1.0,,
BV,001m,1,2024-05-28 16:16:35,191,12.13,21.92,28-May-24,16:17,54.0,100.0,90.0,71.0,72.0,48.0,36.0,5.0,6.0,0.0,1.0,,
BV,001m,1,2024-05-28 16:17:35,192,12.13,21.81,28-May-24,16:18,131.0,124.0,120.0,153.0,129.0,149.0,152.0,5.0,-18.0,0.0,1.0,,
BV,001m,1,2024-05-28 16:18:35,193,12.13,21.7,28-May-24,16:19,281.0,243.0,227.0,225.0,262.0,332.0,368.0,5.0,-51.0,0.0,1.0,,
BV,001m,1,2024-05-28 16:19:35,194,12.13,21.59,28-May-24,16:20,52.0,77.0,93.0,61.0,65.0,53.0,42.0,5.0,-1.0,0.0,1.0,,
BV,001m,1,2024-05-28 16:20:35,195,12.13,21.48,28-May-24,16:21,84.0,127.0,115.0,108.0,114.0,89.0,64.0,5.0,-5.0,0.0,1.0,,